Regional Weather Roundup
Issued by NWS New Orleans/Baton Rouge, LA

Home | Current Version | Previous Version | Graphics & Text | Print | Product List | Glossary On
Versions: 1 2 3 4 5 6 7 8 9 10 11 12 13 14 15 16 17 18 19 20 21 22 23 24 25 26 27 28 29 30 31 32 33 34 35 36 37 38 39 40 41 42 43 44 45 46 47 48 49 50
052
ASUS44 KLIX 261905
RWRLIX
NEW ORLEANS REGIONAL WEATHER ROUNDUP
NATIONAL WEATHER SERVICE NEW ORLEANS LA
100 PM CST THU FEB 26 2015

NOTE: "FAIR" INDICATES FEW OR NO CLOUDS BELOW 12,000 FEET WITH NO
      SIGNIFICANT WEATHER AND/OR OBSTRUCTIONS TO VISIBILITY.
      SKY/WX - SKY CONDITION AND SIGNIFICANT WEATHER.
      TMP - AIR TEMPERATURE.     DP    - DEWPOINT TEMPERATURE.
      RH  - RELATIVE HUMIDITY.   PRES  - PRESSURE.
      HI  - HEAT INDEX.          WCI   - WIND CHILL INDEX.

*  THESE STATIONS ARE NOT NWS OR FAA STATIONS AND ARE NOT UNDER
   NWS QUALITY CONTROL.

LAZ038-040-048-061>063-065>067-069-262000-
SOUTHEAST LOUISIANA

CITY           SKY/WX    TMP DP  RH WIND       PRES   REMARKS
N.O. AUDUBON     N/A     45  40  80 MISG        N/A
N.O. INTL ARPT CLOUDY    44  35  70 N14       30.09F
N.O. LAKEFRONT CLOUDY    47  35  63 N17       30.09F
SLIDELL        CLOUDY    43  35  73 N10G21    30.08F
BATON ROUGE    PTSUNNY   47  34  60 N10G17    30.11S
BOOTHVILLE     CLOUDY    44  37  76 N10G22    30.06F
BELLE CHASSE   CLOUDY    44  34  67 N10G18    30.08S
BOGALUSA*        N/A     44  35  70 NW13      30.11F
GALLIANO*      CLOUDY    48  38  70 NW16G24   30.07F
NEW ROADS*       N/A     46  35  64 NW8       30.12F
GONZALES*      CLOUDY    45  37  72 N10       30.10S
HAMMOND*       CLOUDY    46  34  61 N10       30.12S
HOUMA*         NOT AVBL
PORT FOURCHON* NOT AVBL

$$

MSZ070-080>082-262000-
SOUTHERN MISSISSIPPI

CITY           SKY/WX    TMP DP  RH WIND       PRES   REMARKS
MCCOMB         MOSUNNY   45  30  55 N12       30.09F
GULFPORT       CLOUDY    45  35  68 N16       30.06S
BILOXI         CLOUDY    46  36  67 N16       30.05S
PASCAGOULA     CLOUDY    49  37  63 N16G24    30.03F

$$

COASTAL OBSERVATIONS
LAKE AND NEARSHORE STATIONS

STATION/POSITION TIME  TEMP    WIND        PRES    WAVE
                       AIR SEA DIR/SP/G            HT/PER
                 (UTC) (F)     (DEG/KT/KT) (MB)    (FT/S)
PASCAGOULA       1900   49     360/ 13/ 18 1016.3
WAVELAND YACHT   1900   43 49  360/ 15/ 19 1017.6
GRAND ISLE       1900   44 53   20/ 10/ 15 1018.2
SOUTHWEST PASS   1900   47 49   20/ 11/ 15 1018.0
NEW CANAL        1900   43     360/ 12/ 16 1019.2
SHELL BEACH      1900   42 51  340/ 12/ 15 1018.3

OFFSHORE STATIONS

STATION/POSITION TIME  TEMP    WIND        PRES    WAVE
                       AIR SEA DIR/SP/G            HT/PER
                 (UTC) (F)     (DEG/KT/KT) (MB)    (FT/S)
64 S DAUPHIN ISL 1801   47 65   10/ 14/ 17 1016.9    5/ 7

$$




USA.gov is the U.S. government's official web portal to all federal, state and local government web resources and services.